ND5T-1 Weather Reports


time (UTC)temp
C
wind
direction
speed
KPH
gust
KPH
rain 1hr
cm
rain 24hr
cm
rain mn
cm
humidity
%
barometer
mb
20260502180328 21 98 1.6 3.2 0.00 2.11 0.03 56 1020.7
20260502170328 20 11 1.6 6.4 0.00 2.16 0.03 60 1021.0
20260502164326 20 122 1.6 4.8 0.00 2.51 0.03 61 1021.0
20260502163326 19 335 1.6 4.8 0.00 2.51 0.03 66 1021.2
20260502162326 19 161 1.6 6.4 0.00 2.51 0.03 71 1021.0
20260502161320 19 45 1.6 4.8 0.00 2.51 0.03 66 1021.1
20260502160319 18 116 1.6 3.2 0.00 2.51 0.03 71 1021.1
20260502152332 16 333 0.0 4.8 0.00 2.69 0.03 87 1021.0
20260502151350 16 350 0.0 3.2 0.00 2.69 0.03 89 1021.0
20260502150331 16 326 1.6 6.4 0.00 2.69 0.03 91 1021.2
20260502130318 11 178 0.0 0.0 0.00 4.70 0.03 97 1019.7
20260502123327 10 178 0.0 0.0 0.00 5.77 0.03 97 1019.2
20260502122348 10 178 0.0 0.0 0.00 5.77 0.03 97 1019.1
20260502121328 10 178 0.0 0.0 0.00 5.77 0.03 97 1019.1
20260502120349 10 178 0.0 0.0 0.03 5.77 0.03 97 1019.1
20260502115330 10 178 0.0 0.0 0.03 6.25 0.03 96 1018.9
20260502114350 10 177 0.0 0.0 0.03 6.25 0.03 96 1018.8
20260502113326 10 177 0.0 0.0 0.03 6.25 0.03 97 1018.7
20260502112334 10 177 0.0 0.0 0.03 6.25 0.03 97 1018.7
20260502111334 10 177 0.0 0.0 0.03 6.25 0.03 96 1018.4
20260502110333 10 177 0.0 0.0 0.00 6.22 0.00 96 1018.2
20260502105327 10 177 0.0 0.0 0.00 6.96 0.00 96 1018.1
20260502104327 10 177 0.0 0.0 0.00 6.96 0.00 96 1018.2
20260502103330 10 177 0.0 0.0 0.00 6.96 0.00 96 1018.1
20260502102348 10 177 0.0 0.0 0.00 6.96 0.00 96 1018.0
20260502101347 10 177 0.0 0.0 0.00 6.96 0.00 96 1017.7
20260502100327 10 177 0.0 0.0 0.00 6.96 0.00 96 1017.6
20260502091333 11 177 0.0 0.0 0.00 7.57 0.00 96 1016.7
20260502090334 11 177 0.0 0.0 0.00 7.57 0.00 96 1016.6
20260502071319 11 177 0.0 0.0 0.00 8.23 0.00 96 1016.7
20260502070321 12 177 0.0 0.0 0.00 8.23 0.00 96 1016.5
20260502065333 12 177 0.0 0.0 0.00 8.28 0.00 96 1016.5
20260502064332 12 177 0.0 0.0 0.00 8.28 0.00 96 1016.4
20260502063319 12 177 0.0 0.0 0.00 8.28 0.00 96 1016.2
20260502062317 12 177 0.0 0.0 0.00 8.28 0.00 97 1016.2
20260502061318 12 177 0.0 1.6 0.00 8.28 0.00 96 1016.4
20260502060318 12 177 0.0 1.6 0.00 8.28 0.00 96 1016.3
20260502055351 12 177 0.0 4.8 0.00 8.79 0.00 96 1016.4
20260502054331 12 177 0.0 4.8 0.00 8.79 0.00 96 1016.4
20260502053330 12 12 0.0 0.0 0.00 8.79 0.00 97 1016.5
20260502052332 12 12 0.0 4.8 0.00 8.79 0.00 97 1016.5
20260502051353 12 218 0.0 1.6 0.00 8.79 0.00 96 1016.4
20260502050400 12 218 0.0 1.6 0.00 8.79 0.00 96 1016.5
20260502045332 12 218 0.0 4.8 0.00 8.84 8.79 97 1016.3
20260502044333 12 286 0.0 4.8 0.00 8.84 8.79 97 1016.2
20260502043333 12 5 0.0 1.6 0.00 8.84 8.79 97 1016.3
20260502042334 12 5 0.0 3.2 0.00 8.84 8.79 97 1016.5
20260502041355 12 5 0.0 1.6 0.00 8.84 8.79 97 1016.5
20260502040332 12 5 0.0 3.2 0.00 8.84 8.79 97 1016.3
20260502035326 12 5 0.0 4.8 0.00 8.84 8.79 97 1016.2
20260502034327 12 5 0.0 3.2 0.00 8.84 8.79 97 1016.1
20260502033348 12 5 0.0 3.2 0.03 8.84 8.79 97 1016.1
20260502032328 12 308 0.0 1.6 0.08 8.84 8.79 97 1015.8
20260502031325 12 308 0.0 3.2 0.13 8.84 8.79 97 1015.5
20260502030324 13 293 0.0 1.6 0.18 8.84 8.79 97 1015.0
20260502025336 13 293 0.0 3.2 0.23 8.84 8.79 97 1015.2
20260502024336 13 355 0.0 1.6 0.36 8.84 8.79 97 1015.1
20260502023336 13 355 0.0 1.6 0.38 8.81 8.76 97 1014.8
20260502022316 13 355 0.0 3.2 0.38 8.76 8.71 97 1015.2
20260502021319 13 355 0.0 0.0 0.33 8.71 8.66 97 1015.0
20260502020319 13 355 0.0 1.6 0.30 8.66 8.61 97 1014.7
20260502015333 13 355 0.0 1.6 0.28 8.61 8.56 97 1014.4
20260502014334 13 355 0.0 3.2 0.20 8.48 8.43 97 1013.9
20260502013335 13 334 0.0 1.6 0.15 8.43 8.38 96 1014.5
20260502012317 13 334 0.0 3.2 0.15 8.38 8.33 97 1014.3
20260502011319 13 336 1.6 4.8 0.23 8.38 8.33 96 1013.3
20260502010334 13 102 0.0 3.2 0.23 8.36 8.31 96 1013.0
20260502005326 13 105 0.0 3.2 0.25 8.33 8.28 96 1013.1
20260502004327 14 115 0.0 1.6 0.25 8.28 8.23 97 1013.8
20260502003329 14 115 0.0 1.6 0.30 8.28 8.23 97 1013.2
20260502002327 14 115 0.0 0.0 0.38 8.20 8.15 97 1013.0
20260502001329 14 115 0.0 3.2 0.41 8.15 8.10 97 1012.5
20260502000332 14 116 0.0 3.2 0.38 8.13 8.08 97 1012.4
20260501235342 14 116 0.0 3.2 0.33 8.08 8.03 97 1012.5
20260501234323 14 117 0.0 1.6 0.28 8.03 7.98 96 1012.5
20260501233325 14 117 0.0 4.8 0.25 7.98 7.92 96 1012.5
20260501232325 14 206 0.0 1.6 0.10 7.82 7.77 97 1012.4
20260501231321 14 229 1.6 4.8 0.05 7.75 7.70 97 1012.7
20260501230321 14 101 0.0 3.2 0.08 7.75 7.70 97 1010.7
20260501225327 14 99 0.0 4.8 0.13 7.75 7.70 96 1011.0
20260501224327 15 59 1.6 6.4 0.15 7.75 7.70 96 1011.1
20260501223328 15 76 0.0 1.6 0.13 7.72 7.67 96 1011.0
20260501222329 15 346 0.0 1.6 0.15 7.72 7.67 97 1012.0
20260501221327 15 346 0.0 1.6 0.15 7.70 7.65 97 1012.5
20260501220328 15 346 0.0 3.2 0.15 7.67 7.62 97 1012.6
20260501215318 15 5 0.0 3.2 0.15 7.62 7.57 96 1012.1
20260501214320 15 5 0.0 1.6 0.20 7.59 7.54 96 1012.5
20260501213321 15 5 0.0 3.2 0.25 7.59 7.54 97 1011.7
20260501212323 15 5 0.0 1.6 0.30 7.57 7.52 96 1010.9
20260501211322 15 142 1.6 4.8 0.28 7.54 7.49 97 1010.6
20260501210322 15 167 0.0 1.6 0.28 7.52 7.47 97 1011.4
20260501205334 15 167 0.0 3.2 0.28 7.47 7.42 96 1011.1
20260501204331 15 169 0.0 3.2 0.20 7.39 7.34 97 1011.2
20260501203331 15 156 0.0 1.6 0.18 7.34 7.29 97 1011.3
20260501202333 16 201 0.0 1.6 0.15 7.26 7.21 97 1011.4
20260501201331 16 11 0.0 3.2 0.25 7.26 7.21 97 1010.7
20260501200335 15 11 0.0 3.2 0.30 7.24 7.19 97 1010.6
20260501195329 16 11 0.0 1.6 0.33 7.19 7.14 97 1010.6
20260501194330 16 11 0.0 1.6 0.36 7.19 7.14 97 1010.6
20260501193329 15 11 1.6 4.8 0.36 7.16 7.11 97 1009.6
20260501192324 15 125 0.0 1.6 0.30 7.11 7.06 97 1010.0
20260501191349 15 125 0.0 1.6 0.23 7.01 6.96 97 1009.9
20260501190331 16 125 0.0 1.6 0.15 6.93 6.88 97 1010.4
20260501185319 15 125 0.0 3.2 0.10 6.86 6.81 97 1010.2
20260501184320 16 125 0.0 4.8 0.08 6.83 6.78 97 1009.3
20260501183323 16 169 0.0 3.2 0.05 6.81 6.76 97 1009.5
20260501182325 16 141 1.6 4.8 0.05 6.81 6.76 97 1009.2
20260501181347 16 99 0.0 1.6 0.03 6.78 6.73 97 1010.0